Flag for United Kingdom Weather past 2 weeks in Leeds, England, United Kingdom

Now
46 °F

Drizzle. Fog.


Feels Like: 40 °F
Forecast: 45 / 52 °F
Wind: 14 mph from Northeast

Location: Leeds And Bradford

Current Time: May 5, 2015 at 6:18:32 AM

Latest Report: May 5, 2015 at 5:50 AM


Visibility: 0 mi

Pressure: 29.12 "Hg

Humidity: 100%

Dew point: 46 °F

Location of LeedsLocation

Historic Weather in Leeds — Graph

°F

Leeds temperature yesterday

Maximum temperature yesterday: 59 °F (at 1:50 PM)
Minimum temperature yesterday: 46 °F (at 4:20 AM)
Average temperature yesterday: 53 °F

Past Weeks' High & Low Weather Summary

 TemperatureHumidityPressure
High64 °F (Apr 23, 3:20 PM)100% (Apr 20, 5:20 AM)30.60 "Hg (Apr 20, 5:20 AM)
Low30 °F (Apr 27, 2:50 AM)24% (Apr 27, 1:50 PM)29.15 "Hg (May 5, 5:20 AM)
Average46 °F75%29.89 "Hg
* Reported Apr 20 5:20 AM — May 5 5:20 AM, Leeds, Weather by CustomWeather, © 2015

Note: Actual official high and low records may vary slightly from our data, if they occured in-between our weather recording intervals... More about our weather records

Advertising

Leeds weather history for previous 24 hours

 ConditionsComfort  
Time TempWeatherWind HumidityBarometerVisibility
5:20 AM
Tue, May 5
46 °FDrizzle. Fog.14 mph100%29.15 "Hg0 mi
4:20 AM48 °FFog.12 mph100%29.18 "Hg0 mi
3:50 AM48 °FFog.10 mph100%29.24 "Hg0 mi
3:20 AM48 °FFog.9 mph100%29.24 "Hg0 mi
2:50 AM48 °FFog.8 mph100%29.27 "Hg1 mi
2:20 AM48 °FFog.8 mph100%29.33 "Hg1 mi
1:50 AM48 °FFog.7 mph100%29.33 "Hg1 mi
1:20 AM48 °FPassing clouds.8 mph94%29.36 "Hg4 mi
12:50 AM48 °FPassing clouds.10 mph87%29.36 "HgN/A
12:20 AM48 °FPassing clouds.8 mph87%29.39 "HgN/A
11:50 PM
Mon, May 4
48 °FPassing clouds.5 mph87%29.39 "HgN/A
11:20 PM50 °FPassing clouds.9 mph76%29.42 "HgN/A
10:50 PM50 °FPassing clouds.9 mph76%29.45 "HgN/A
9:50 PM52 °FPassing clouds.7 mph72%29.47 "HgN/A
9:20 PM52 °FScattered clouds.8 mph72%29.47 "HgN/A
8:50 PM54 °FScattered clouds.12 mph67%29.47 "HgN/A
8:20 PM54 °FPassing clouds.9 mph63%29.47 "HgN/A
7:50 PM55 °FPassing clouds.12 mph59%29.50 "HgN/A
7:20 PM55 °FPassing clouds.10 mph59%29.50 "HgN/A
6:50 PM55 °FPassing clouds.6 mph59%29.50 "HgN/A
6:20 PM57 °FPassing clouds.8 mph55%29.53 "HgN/A
5:50 PM55 °FPassing clouds.7 mph55%29.53 "HgN/A
5:20 PM57 °FPassing clouds.7 mph55%29.53 "HgN/A
4:50 PM57 °FPassing clouds.7 mph55%29.56 "HgN/A
4:20 PM59 °FPassing clouds.6 mph51%29.56 "HgN/A
3:50 PM57 °FPassing clouds.6 mph51%29.56 "HgN/A
3:20 PM57 °FPassing clouds.8 mph51%29.56 "HgN/A
2:50 PM57 °FPassing clouds.7 mph55%29.59 "HgN/A
2:20 PM57 °FScattered clouds.8 mph55%29.59 "HgN/A
1:50 PM59 °FScattered clouds.9 mph51%29.59 "HgN/A
1:20 PM57 °FScattered clouds.10 mph51%29.59 "HgN/A
12:50 PM57 °FScattered clouds.9 mph55%29.59 "HgN/A
12:20 PM55 °FScattered clouds.10 mph55%29.59 "HgN/A
11:50 AM55 °FScattered clouds.13 mph55%29.59 "HgN/A
11:20 AM52 °FScattered clouds.10 mph62%29.59 "HgN/A
10:50 AM54 °FScattered clouds.13 mph63%29.56 "HgN/A
10:20 AM54 °FScattered clouds.13 mph67%29.56 "HgN/A
9:50 AM50 °FScattered clouds.14 mph71%29.56 "HgN/A
9:20 AM48 °FScattered clouds.14 mph76%29.56 "HgN/A
8:50 AM48 °FScattered clouds.10 mph82%29.53 "HgN/A
8:20 AM48 °FScattered clouds.16 mph82%29.53 "HgN/A
7:50 AM48 °FScattered clouds.15 mph82%29.50 "HgN/A
7:20 AM48 °FScattered clouds.12 mph82%29.50 "HgN/A
6:50 AM46 °FScattered clouds.10 mph82%29.50 "HgN/A
6:20 AM46 °FPassing clouds.15 mph87%29.47 "HgN/A
Weather by CustomWeather, © 2015

See weather overviewHow to use our weather pages